User: anonymous   Login
Location: Theydon Bois
(51.6750°N, 0.1050°E)
Time: 14:58:17
(UTC+00:00)
Language:

NOSS 3-4 (A) - Orbit

View from above orbital plane
View from above orbital plane
View from above satellite
View from above satellite

Ground track
Ground track

The orbit data is extracted from the following two-line orbital elements,

1 31701U 07027A   17332.18261304 0.00000000  00000-0  00000-0 0    02
2 31701  63.4032  25.2893 0207000  22.7575 337.2424 13.40739228    02
Epoch (UTC): 28 November 2017 04:22:57
Eccentricity: 0.0207000
inclination: 63.4032°
perigee height: 951 km
apogee height: 1261 km
right ascension of ascending node: 25.2893°
argument of perigee: 22.7575°
revolutions per day: 13.40739228
mean anomaly at epoch: 337.2424°
orbit number at epoch: 0

The dashed part of the orbit path shows where the satellite is in the earth's shadow,  

DLR